User: anonymous
Location: NJAA Observatory
(40.6819°N, 74.8979°W)
Time: 03:34:41
(UTC-04:00)
Language:

Cosmos 2237 Rocket - Orbit

View from above orbital plane
View from above orbital plane
View from above satellite
View from above satellite

Ground track
Ground track

The orbit data is extracted from the following two-line orbital elements,

1 22566U 93016B   14243.48689029  .00000051  00000-0  51186-4 0  1342
2 22566 071.0094 049.2868 0012471 252.5364 107.4395 14.14855973106893
Epoch (UTC): 31 August 2014 11:41:07
Eccentricity: 0.0012471
inclination: 71.0094°
perigee height: 834 km
apogee height: 852 km
right ascension of ascending node: 49.2868°
argument of perigee: 252.5364°
revolutions per day: 14.14855973
mean anomaly at epoch: 107.4395°
orbit number at epoch: 10689

The dashed part of the orbit path shows where the satellite is in the earth's shadow,  

DLR